Wind_Speed
24 24 23 23 23 22 21 20 18 17 16 15 15 14 13 13 12 12 12 11 10 9 9 8 8 7 7 7 8 9 10 11 12 12 13 12 12 12 11 11 11 9
23 23 24 24 24 23 22 21 19 18 17 16 16 16 16 15 14 13 12 11 11 10 10 10 9 8 8 8 8 9 10 11 12 12 12 11 11 10 11 11 11 10
23 23 24 24 24 23 22 22 21 19 18 17 17 17 17 16 15 14 13 12 11 11 10 10 10 9 8 8 9 9 10 11 11 12 11 11 11 11 10 10 11 11
23 23 23 23 23 22 22 23 22 21 20 18 18 17 17 17 16 16 15 13 12 10 10 11 11 11 10 9 10 10 10 11 11 12 11 11 11 12 11 10 10 11
24 23 22 22 23 23 23 23 23 22 21 19 18 18 18 17 17 16 16 15 13 11 11 11 12 12 11 11 10 10 11 11 11 11 12 12 12 12 11 11 10 10
25 24 23 23 23 23 23 23 23 23 23 21 20 19 18 18 17 17 16 15 14 13 12 11 12 13 13 12 12 11 11 11 11 11 12 12 13 13 12 11 11 10
26 25 25 24 24 24 24 23 23 24 24 23 22 21 19 18 17 17 17 16 15 14 13 13 12 12 13 13 13 13 13 12 12 12 12 12 13 13 12 11 11 10
26 26 26 25 25 25 25 24 24 24 24 24 24 23 21 19 17 18 18 17 16 15 14 14 13 13 13 14 14 13 13 13 13 13 13 13 12 12 12 12 11 11
28 27 27 27 27 26 26 26 25 24 24 25 24 24 23 20 18 18 19 18 17 16 15 14 14 14 14 14 14 14 14 14 14 14 14 14 13 13 13 12 12 12
29 29 28 28 28 27 26 26 25 25 25 25 25 25 24 22 20 19 19 19 18 17 16 14 14 14 15 15 15 15 15 15 15 16 16 16 15 15 14 14 14 13
29 29 30 30 29 28 27 26 25 26 25 25 25 25 24 24 22 21 20 20 18 16 16 15 13 14 14 15 15 16 15 16 16 16 17 17 17 17 17 16 16 15
28 29 30 30 29 28 27 26 26 26 25 25 25 24 24 24 23 22 22 21 18 16 16 16 14 14 15 15 16 16 17 17 16 16 16 17 18 19 19 19 18 17
26 27 28 29 29 28 28 27 27 26 25 25 24 24 24 24 24 23 22 22 20 18 17 16 16 15 15 16 17 17 17 17 17 16 16 16 18 19 19 20 20 19
24 25 26 27 28 28 28 28 28 26 25 25 24 24 24 24 23 23 22 23 22 20 18 18 17 16 16 17 17 17 17 17 17 16 16 16 16 17 18 19 19 19
23 24 25 26 28 29 29 29 29 28 26 25 25 24 24 24 23 23 23 23 23 22 21 20 20 18 17 16 17 17 16 16 16 16 15 15 15 16 17 17 17 17
24 24 25 26 27 28 29 29 29 29 28 27 26 25 24 24 24 23 23 24 24 23 23 22 21 20 18 16 16 16 16 15 16 16 15 15 15 15 16 16 16 16
25 25 25 25 26 27 28 28 29 29 29 28 27 26 25 25 25 24 24 23 24 25 24 23 22 20 19 17 17 17 17 17 17 16 16 16 16 16 16 16 16 16
26 25 25 25 25 26 27 28 28 29 30 29 28 27 27 26 26 25 24 23 24 25 26 25 23 21 20 19 19 18 18 18 18 18 18 18 18 18 17 16 16 16
27 26 26 26 25 25 26 27 28 29 30 30 28 28 28 28 27 26 25 24 25 25 25 25 24 23 21 20 20 20 20 20 20 20 20 20 20 19 19 18 18 17
28 27 27 27 26 26 26 27 28 29 29 29 29 28 28 29 29 28 27 25 25 25 25 25 25 24 23 21 21 22 22 22 22 22 23 22 22 21 21 21 20 19
30 29 28 28 28 27 27 27 27 28 29 29 29 29 28 28 29 29 29 27 26 25 25 24 25 24 24 23 23 23 23 23 24 25 25 25 24 23 23 22 21 21
31 30 29 29 28 29 28 28 27 28 28 29 29 28 28 28 28 29 30 29 28 27 26 26 25 25 25 25 24 24 23 24 25 25 26 26 25 25 24 22 22 22
30 31 31 30 29 29 30 29 28 28 28 28 29 28 27 27 28 29 30 30 30 29 28 27 26 26 26 26 26 25 25 26 26 26 26 26 26 26 25 24 22 22
29 29 31 32 31 30 30 30 30 29 28 28 29 28 27 26 26 27 28 30 31 31 30 29 28 27 27 27 27 27 27 28 28 28 27 27 27 26 27 26 24 22
28 29 30 32 33 32 32 31 31 30 29 29 29 29 28 27 26 27 27 28 30 31 31 30 30 29 28 28 28 28 29 29 29 29 29 28 27 27 28 27 25 23
27 28 29 31 33 34 34 33 32 32 31 31 31 30 30 29 28 27 27 27 28 29 31 31 31 31 30 28 28 29 29 30 30 31 30 28 27 28 28 28 26 24
Wind_Direction
211 210 211 211 210 210 210 209 209 211 211 208 208 210 210 210 206 202 198 191 189 193 191 187 181 177 170 160 157 156 152 149 147 148 148 149 150 150 152 152 151 153
212 211 211 213 213 211 211 211 211 212 214 212 211 213 215 216 213 209 207 199 192 192 194 194 191 184 176 168 164 161 159 158 156 155 154 155 154 154 155 155 152 152
214 213 213 214 216 214 212 212 214 214 214 213 213 215 217 218 217 214 213 209 201 194 194 198 196 192 184 177 173 168 166 166 164 162 161 162 159 155 156 157 155 154
217 216 215 215 217 217 215 214 215 217 218 216 214 216 219 220 218 215 214 215 211 201 198 200 201 199 193 186 182 178 173 171 171 169 168 169 165 160 160 161 159 156
218 219 217 216 216 217 218 217 216 217 220 221 218 216 218 220 220 217 214 215 215 210 204 203 204 204 201 196 191 188 185 179 176 176 174 175 174 170 168 167 165 161
217 219 219 217 216 216 219 220 218 218 220 223 223 220 218 218 220 220 216 214 214 213 210 206 207 209 207 204 200 197 195 190 186 185 183 181 182 182 180 176 174 171
214 218 219 218 218 217 218 220 221 220 221 222 224 224 222 217 216 219 220 216 213 213 213 210 210 212 213 211 209 206 203 200 198 196 194 192 190 189 190 188 186 183
212 216 218 218 219 219 217 219 221 221 222 223 223 225 225 221 215 216 220 220 216 214 214 213 212 213 214 215 215 214 211 208 206 206 206 206 203 198 197 198 200 199
210 213 216 217 219 220 219 219 221 221 223 224 224 225 226 224 217 214 219 223 221 218 217 215 213 213 213 214 216 217 217 216 213 213 214 215 214 213 211 210 211 211
210 211 213 216 218 219 219 219 221 222 223 226 227 226 225 225 221 214 217 223 225 223 222 219 213 211 210 211 214 217 218 220 219 218 219 221 221 221 221 221 221 222
212 211 212 214 216 218 219 219 222 223 224 226 228 229 228 225 223 217 216 222 226 226 227 225 218 213 212 209 211 215 217 221 222 221 222 225 226 227 227 228 228 228
215 214 214 214 215 216 217 219 222 223 225 226 228 231 231 228 225 221 218 221 225 226 227 228 225 220 218 214 212 214 217 220 223 224 224 225 228 230 231 232 233 233
215 217 217 216 216 216 216 218 221 223 224 226 227 230 232 231 228 224 221 221 224 225 225 228 228 223 220 220 218 217 219 222 225 227 227 227 229 232 235 236 237 238
214 216 218 219 217 217 217 218 221 222 224 225 226 229 231 231 230 227 224 223 223 224 224 226 228 225 220 219 220 220 220 223 227 230 231 230 230 232 236 239 241 241
214 214 216 218 218 218 219 220 221 222 223 223 224 227 229 230 230 227 226 226 225 224 223 224 226 226 221 218 220 222 221 222 226 230 232 234 233 233 236 239 242 244
217 216 215 216 218 219 220 221 222 223 224 223 223 225 227 228 228 226 225 226 226 224 223 223 224 225 223 220 222 224 224 222 225 228 231 233 234 236 237 239 242 244
220 218 217 217 217 219 221 221 222 224 226 225 223 223 225 227 227 225 223 223 226 225 224 224 223 223 223 223 224 227 228 227 227 230 233 235 236 237 239 241 243 245
220 220 220 219 219 219 221 222 223 225 227 228 226 223 224 227 229 227 223 220 223 225 224 224 223 222 221 221 224 227 230 232 233 233 235 238 241 242 242 244 246 248
220 222 222 222 221 220 220 222 224 225 227 230 229 226 225 228 231 231 227 221 220 224 224 223 223 223 220 218 221 224 227 231 235 236 237 238 241 244 245 246 247 249
219 221 223 225 224 222 222 223 225 227 228 230 231 229 227 227 230 234 233 227 221 221 223 224 223 223 221 218 220 223 226 229 232 236 239 239 239 241 244 246 248 250
220 221 223 225 226 225 224 225 226 228 229 230 232 232 230 228 229 233 237 235 228 224 223 223 223 223 222 219 218 221 225 229 232 235 239 241 241 242 243 245 248 251
222 222 223 224 227 228 228 228 227 229 230 231 233 234 233 231 229 231 234 237 237 232 228 225 223 223 223 223 220 221 224 229 233 236 239 242 244 246 246 246 247 249
224 223 224 225 226 229 231 231 230 230 231 231 233 235 235 233 231 231 232 234 237 238 235 231 226 223 224 226 226 225 226 229 234 237 240 242 245 248 250 249 247 248
228 224 224 225 227 229 232 233 233 233 232 233 235 236 237 236 235 234 234 233 235 238 240 239 235 228 224 224 225 227 229 231 235 238 240 242 244 248 251 252 251 250
231 227 225 225 227 230 231 233 234 235 234 235 236 238 239 239 238 237 237 236 235 237 239 241 241 238 231 225 223 226 229 232 235 238 240 241 243 246 250 254 255 254
231 230 227 225 226 229 230 232 233 234 235 235 236 238 238 239 240 239 239 239 237 236 237 239 242 243 240 234 229 228 229 231 234 237 240 242 243 245 249 254 257 258
Height
3213 3215 3217 3219 3221 3222 3223 3225 3226 3227 3228 3230 3231 3232 3233 3234 3235 3236 3237 3238 3239 3240 3241 3241 3242 3243 3244 3244 3245 3245 3246 3247 3247 3248 3249 3249 3250 3251 3251 3251 3252 3252
3211 3213 3215 3217 3219 3221 3222 3223 3225 3226 3227 3229 3230 3231 3232 3233 3234 3235 3236 3237 3238 3239 3240 3241 3242 3242 3243 3244 3245 3245 3246 3247 3247 3248 3249 3250 3251 3251 3252 3252 3252 3253
3210 3211 3213 3215 3217 3219 3221 3222 3223 3225 3226 3227 3229 3230 3231 3232 3233 3234 3235 3236 3237 3238 3239 3240 3241 3242 3243 3244 3244 3245 3246 3247 3247 3248 3249 3250 3251 3251 3252 3252 3252 3253
3208 3210 3212 3213 3215 3217 3219 3221 3222 3223 3224 3225 3227 3228 3229 3231 3232 3233 3234 3235 3236 3237 3239 3240 3241 3241 3242 3243 3244 3245 3246 3246 3247 3248 3249 3250 3251 3251 3252 3253 3253 3253
3206 3208 3210 3212 3213 3215 3217 3219 3220 3221 3222 3224 3225 3227 3228 3229 3230 3232 3233 3234 3235 3236 3238 3239 3240 3240 3241 3242 3243 3244 3245 3246 3247 3248 3249 3250 3251 3251 3252 3253 3253 3254
3203 3205 3207 3209 3211 3213 3214 3216 3218 3220 3221 3222 3223 3225 3226 3228 3229 3230 3232 3233 3234 3235 3236 3238 3239 3240 3240 3241 3242 3243 3244 3245 3246 3247 3248 3249 3250 3251 3252 3252 3253 3253
3200 3202 3205 3207 3209 3210 3212 3214 3216 3217 3219 3220 3221 3222 3224 3226 3227 3229 3230 3231 3233 3234 3235 3236 3237 3239 3239 3240 3241 3242 3243 3244 3245 3246 3247 3248 3249 3250 3251 3252 3253 3253
3197 3200 3202 3204 3206 3208 3209 3211 3213 3215 3217 3218 3219 3220 3222 3223 3225 3227 3228 3229 3231 3232 3233 3235 3236 3237 3238 3239 3240 3241 3242 3243 3244 3245 3246 3247 3248 3249 3250 3251 3252 3252
3194 3196 3199 3201 3203 3205 3207 3209 3210 3212 3214 3216 3217 3219 3220 3221 3223 3225 3226 3227 3229 3230 3232 3233 3234 3235 3237 3238 3239 3239 3240 3241 3243 3244 3245 3246 3247 3248 3249 3250 3250 3251
3191 3193 3195 3198 3200 3202 3204 3207 3208 3210 3212 3213 3215 3216 3218 3219 3221 3223 3224 3225 3227 3228 3230 3231 3232 3234 3235 3236 3237 3238 3239 3240 3241 3242 3243 3244 3245 3246 3247 3248 3249 3249
3187 3190 3192 3194 3197 3199 3202 3204 3206 3207 3209 3211 3212 3214 3216 3217 3219 3220 3222 3223 3225 3226 3228 3229 3231 3232 3233 3234 3235 3236 3237 3238 3239 3240 3241 3242 3243 3244 3245 3246 3247 3248
3185 3187 3189 3191 3194 3197 3200 3202 3203 3205 3206 3208 3210 3211 3213 3215 3216 3218 3219 3221 3223 3224 3226 3227 3229 3230 3231 3232 3234 3234 3235 3236 3237 3238 3239 3240 3241 3242 3242 3243 3244 3245
3182 3184 3187 3189 3192 3194 3197 3199 3200 3202 3204 3206 3207 3209 3211 3213 3214 3216 3217 3219 3220 3222 3224 3225 3226 3228 3229 3230 3231 3232 3233 3234 3235 3236 3237 3238 3239 3239 3240 3241 3242 3243
3180 3182 3185 3187 3189 3192 3194 3196 3198 3199 3201 3203 3205 3206 3208 3210 3212 3214 3216 3217 3218 3219 3221 3222 3224 3225 3226 3228 3229 3230 3231 3232 3233 3234 3234 3235 3236 3237 3238 3239 3239 3240
3178 3180 3182 3184 3187 3189 3191 3193 3195 3196 3198 3200 3202 3203 3205 3207 3209 3212 3213 3215 3216 3217 3219 3220 3221 3222 3224 3225 3227 3228 3229 3230 3231 3232 3232 3233 3234 3235 3235 3236 3237 3238
3176 3178 3180 3182 3183 3185 3188 3190 3192 3194 3195 3197 3199 3200 3202 3204 3206 3208 3210 3212 3214 3215 3216 3217 3218 3220 3221 3223 3224 3225 3227 3228 3229 3229 3230 3231 3231 3232 3233 3234 3234 3235
3174 3176 3177 3179 3181 3183 3185 3187 3189 3191 3192 3194 3196 3198 3199 3201 3202 3204 3207 3209 3211 3212 3214 3214 3216 3218 3219 3221 3222 3223 3224 3225 3226 3227 3228 3228 3229 3230 3230 3231 3232 3233
3171 3173 3175 3176 3178 3180 3182 3184 3186 3188 3189 3191 3193 3195 3197 3198 3199 3201 3204 3206 3208 3209 3211 3212 3214 3215 3217 3218 3219 3220 3221 3222 3223 3224 3225 3226 3226 3227 3228 3229 3229 3230
3168 3170 3172 3174 3176 3178 3180 3181 3183 3184 3186 3187 3190 3192 3194 3195 3196 3198 3200 3202 3204 3206 3208 3210 3211 3213 3215 3216 3217 3218 3219 3220 3220 3221 3222 3223 3224 3225 3225 3226 3227 3227
3164 3167 3169 3172 3174 3175 3177 3178 3179 3181 3183 3184 3187 3189 3191 3193 3194 3195 3196 3199 3201 3203 3205 3207 3208 3210 3212 3213 3215 3216 3216 3217 3218 3218 3219 3220 3221 3222 3222 3223 3224 3225
3161 3164 3166 3169 3171 3173 3174 3175 3176 3178 3180 3182 3183 3185 3187 3190 3191 3192 3193 3195 3198 3200 3202 3203 3205 3207 3209 3210 3212 3213 3214 3214 3215 3215 3216 3216 3218 3219 3219 3220 3221 3222
3158 3161 3163 3165 3168 3170 3171 3172 3174 3175 3177 3179 3180 3182 3184 3186 3188 3189 3190 3192 3194 3196 3198 3200 3202 3204 3206 3207 3209 3210 3210 3211 3211 3212 3212 3213 3214 3215 3216 3218 3219 3219
3154 3157 3159 3162 3164 3166 3168 3169 3171 3173 3174 3176 3177 3178 3180 3182 3184 3186 3187 3189 3190 3192 3194 3196 3198 3200 3202 3204 3205 3206 3207 3207 3208 3208 3209 3210 3211 3212 3212 3214 3215 3216
3150 3153 3156 3158 3161 3162 3164 3166 3168 3170 3171 3172 3174 3175 3176 3178 3181 3182 3184 3185 3186 3187 3189 3192 3194 3196 3199 3200 3202 3203 3203 3204 3204 3205 3205 3206 3207 3208 3208 3210 3211 3213
3146 3149 3152 3154 3156 3159 3161 3163 3165 3167 3168 3170 3171 3172 3173 3175 3177 3178 3180 3182 3183 3184 3185 3187 3189 3191 3194 3196 3198 3199 3200 3200 3201 3201 3202 3202 3204 3204 3205 3206 3207 3209
3142 3144 3147 3150 3152 3155 3157 3159 3161 3163 3165 3166 3167 3168 3170 3171 3172 3174 3176 3178 3179 3181 3182 3183 3184 3186 3189 3191 3193 3194 3196 3197 3197 3197 3198 3199 3200 3201 3202 3202 3204 3205